Time,TemperatureF,DewpointF,PressureIn,WindDirection,WindDirectionDegrees,WindSpeedMPH,WindSpeedGustMPH,Humidity,HourlyPrecipIn,Conditions,Clouds,dailyrainin,SoftwareType,DateUTC
2013-08-19 00:02:00,68.7,64.3,30.07,NNW,337,0.0,-999.0,86,0.00,,,0.00,open2300 v1.10,2013-08-19 05:02:00,
2013-08-19 00:10:00,68.5,64.2,30.07,NNW,337,0.0,-999.0,86,0.00,,,0.00,open2300 v1.10,2013-08-19 05:10:00,
2013-08-19 00:16:00,68.5,64.2,30.07,NNW,337,0.0,-999.0,86,0.00,,,0.00,open2300 v1.10,2013-08-19 05:16:00,
2013-08-19 00:25:00,68.2,63.8,30.07,NNW,337,0.0,-999.0,86,0.00,,,0.00,open2300 v1.10,2013-08-19 05:25:00,
2013-08-19 00:31:00,68.2,63.8,30.07,NNW,337,0.0,-999.0,86,0.00,,,0.00,open2300 v1.10,2013-08-19 05:31:00,
2013-08-19 00:40:00,68.2,63.8,30.07,NNW,337,0.0,-999.0,86,0.00,,,0.00,open2300 v1.10,2013-08-19 05:40:00,
2013-08-19 00:46:00,68.2,64.1,30.07,NNW,337,0.0,-999.0,87,0.00,,,0.00,open2300 v1.10,2013-08-19 05:46:00,
2013-08-19 00:55:00,67.8,63.8,30.07,NNW,337,0.0,-999.0,87,0.00,,,0.00,open2300 v1.10,2013-08-19 05:55:00,
2013-08-19 01:04:00,67.8,63.8,30.07,NNW,337,0.0,-999.0,87,0.00,,,0.00,open2300 v1.10,2013-08-19 06:04:00,
2013-08-19 01:10:00,67.8,63.8,30.07,NNW,337,0.0,-999.0,87,0.00,,,0.00,open2300 v1.10,2013-08-19 06:10:00,
2013-08-19 01:16:00,67.5,63.4,30.07,NNW,337,0.0,-999.0,87,0.00,,,0.00,open2300 v1.10,2013-08-19 06:16:00,
2013-08-19 01:25:00,67.3,63.2,30.07,NNW,337,0.0,-999.0,87,0.00,,,0.00,open2300 v1.10,2013-08-19 06:25:00,
2013-08-19 01:31:00,67.3,63.2,30.07,NNW,337,0.0,-999.0,87,0.00,,,0.00,open2300 v1.10,2013-08-19 06:31:00,
2013-08-19 01:40:00,67.3,63.2,30.07,NNW,337,0.0,-999.0,87,0.00,,,0.00,open2300 v1.10,2013-08-19 06:40:00,
2013-08-19 01:46:00,67.1,63.4,30.07,NNW,337,0.0,-999.0,88,0.00,,,0.00,open2300 v1.10,2013-08-19 06:46:00,
2013-08-19 01:55:00,67.1,63.4,30.07,NNW,337,0.0,-999.0,88,0.00,,,0.00,open2300 v1.10,2013-08-19 06:55:00,
2013-08-19 02:02:00,67.1,63.4,30.07,NNW,337,0.0,-999.0,88,0.00,,,0.00,open2300 v1.10,2013-08-19 07:02:00,
2013-08-19 02:10:00,67.1,63.4,30.07,NNW,337,0.0,-999.0,88,0.00,,,0.00,open2300 v1.10,2013-08-19 07:10:00,
2013-08-19 02:16:00,67.1,63.4,30.07,NNW,337,0.0,-999.0,88,0.00,,,0.00,open2300 v1.10,2013-08-19 07:16:00,
2013-08-19 02:25:00,67.3,63.6,30.07,NNW,337,0.0,-999.0,88,0.00,,,0.00,open2300 v1.10,2013-08-19 07:25:00,
2013-08-19 02:31:00,67.3,63.6,30.07,NNW,337,0.0,-999.0,88,0.00,,,0.00,open2300 v1.10,2013-08-19 07:31:00,
2013-08-19 02:40:00,67.3,63.6,30.07,NNW,337,0.0,-999.0,88,0.00,,,0.00,open2300 v1.10,2013-08-19 07:40:00,
2013-08-19 02:46:00,67.3,63.6,30.07,NNW,337,0.0,-999.0,88,0.00,,,0.00,open2300 v1.10,2013-08-19 07:46:00,
2013-08-19 02:55:00,67.1,63.4,30.08,NNW,337,0.0,-999.0,88,0.00,,,0.00,open2300 v1.10,2013-08-19 07:55:00,
2013-08-19 03:02:00,67.1,63.4,30.08,NNW,337,0.0,-999.0,88,0.00,,,0.00,open2300 v1.10,2013-08-19 08:02:00,
2013-08-19 03:10:00,66.9,63.2,30.08,NNW,337,0.0,-999.0,88,0.00,,,0.00,open2300 v1.10,2013-08-19 08:10:00,
2013-08-19 03:16:00,66.9,63.5,30.07,NNW,337,0.0,-999.0,89,0.00,,,0.00,open2300 v1.10,2013-08-19 08:16:00,
2013-08-19 03:25:00,66.9,63.5,30.07,NNW,337,0.0,-999.0,89,0.00,,,0.00,open2300 v1.10,2013-08-19 08:25:00,
2013-08-19 03:31:00,66.9,63.5,30.08,NNW,337,0.0,-999.0,89,0.00,,,0.00,open2300 v1.10,2013-08-19 08:31:00,
2013-08-19 03:40:00,66.9,63.5,30.07,NNW,337,0.0,-999.0,89,0.00,,,0.00,open2300 v1.10,2013-08-19 08:40:00,
2013-08-19 03:46:00,66.9,63.5,30.07,NNW,337,0.0,-999.0,89,0.00,,,0.00,open2300 v1.10,2013-08-19 08:46:00,
2013-08-19 03:55:00,66.9,63.5,30.06,NNW,337,0.0,-999.0,89,0.00,,,0.00,open2300 v1.10,2013-08-19 08:55:00,
2013-08-19 04:02:00,66.7,63.4,30.06,NNW,337,0.0,-999.0,89,0.00,,,0.00,open2300 v1.10,2013-08-19 09:02:00,
2013-08-19 04:10:00,66.7,63.4,30.06,NNW,337,0.0,-999.0,89,0.00,,,0.00,open2300 v1.10,2013-08-19 09:10:00,
2013-08-19 04:16:00,66.7,63.4,30.06,NNW,337,0.0,-999.0,89,0.00,,,0.00,open2300 v1.10,2013-08-19 09:16:00,
2013-08-19 04:25:00,66.6,63.2,30.06,NNW,337,0.0,-999.0,89,0.00,,,0.00,open2300 v1.10,2013-08-19 09:25:00,
2013-08-19 04:31:00,66.4,63.0,30.06,NNW,337,0.0,-999.0,89,0.00,,,0.00,open2300 v1.10,2013-08-19 09:31:00,
2013-08-19 04:40:00,66.2,62.8,30.06,NNW,337,0.0,-999.0,89,0.00,,,0.00,open2300 v1.10,2013-08-19 09:40:00,
2013-08-19 04:46:00,66.2,63.1,30.06,NNW,337,0.0,-999.0,90,0.00,,,0.00,open2300 v1.10,2013-08-19 09:46:00,
2013-08-19 04:55:00,66.0,63.0,30.06,NNW,337,0.0,-999.0,90,0.00,,,0.00,open2300 v1.10,2013-08-19 09:55:00,
2013-08-19 05:02:00,66.0,63.0,30.06,NNW,337,0.0,-999.0,90,0.00,,,0.00,open2300 v1.10,2013-08-19 10:02:00,
2013-08-19 05:10:00,66.0,63.0,30.06,NNW,337,0.0,-999.0,90,0.00,,,0.00,open2300 v1.10,2013-08-19 10:10:00,
2013-08-19 05:16:00,65.8,62.8,30.06,NNW,337,0.0,-999.0,90,0.00,,,0.00,open2300 v1.10,2013-08-19 10:16:00,
2013-08-19 05:25:00,65.5,62.5,30.07,NNW,337,0.0,-999.0,90,0.00,,,0.00,open2300 v1.10,2013-08-19 10:25:00,
2013-08-19 05:31:00,65.5,62.5,30.07,NNW,337,0.0,-999.0,90,0.00,,,0.00,open2300 v1.10,2013-08-19 10:31:00,
2013-08-19 05:40:00,65.3,62.3,30.08,NNW,337,0.0,-999.0,90,0.00,,,0.00,open2300 v1.10,2013-08-19 10:40:00,
2013-08-19 05:46:00,65.3,62.3,30.08,NNW,337,0.0,-999.0,90,0.00,,,0.00,open2300 v1.10,2013-08-19 10:46:00,
2013-08-19 05:55:00,65.1,62.2,30.08,NNW,337,0.0,-999.0,90,0.00,,,0.00,open2300 v1.10,2013-08-19 10:55:00,
2013-08-19 06:02:00,64.8,61.8,30.08,NNW,337,0.0,-999.0,90,0.00,,,0.00,open2300 v1.10,2013-08-19 11:02:00,
2013-08-19 06:10:00,64.6,61.7,30.08,NNW,337,0.0,-999.0,90,0.00,,,0.00,open2300 v1.10,2013-08-19 11:10:00,
2013-08-19 06:16:00,64.6,61.7,30.08,NNW,337,0.0,-999.0,90,0.00,,,0.00,open2300 v1.10,2013-08-19 11:16:00,
2013-08-19 06:25:00,64.2,61.3,30.08,NNW,337,0.0,-999.0,90,0.00,,,0.00,open2300 v1.10,2013-08-19 11:25:00,
2013-08-19 06:31:00,64.2,61.3,30.09,NNW,337,0.0,-999.0,90,0.00,,,0.00,open2300 v1.10,2013-08-19 11:31:00,
2013-08-19 06:40:00,64.2,61.3,30.09,NNW,337,0.0,-999.0,90,0.00,,,0.00,open2300 v1.10,2013-08-19 11:40:00,
2013-08-19 06:46:00,64.2,61.3,30.09,NNW,337,0.0,-999.0,90,0.00,,,0.00,open2300 v1.10,2013-08-19 11:46:00,
2013-08-19 06:55:00,64.6,61.7,30.09,NNW,337,0.0,-999.0,90,0.00,,,0.00,open2300 v1.10,2013-08-19 11:55:00,
2013-08-19 07:02:00,64.6,61.7,30.09,NNW,337,0.0,-999.0,90,0.00,,,0.00,open2300 v1.10,2013-08-19 12:02:00,
2013-08-19 07:10:00,64.6,61.7,30.09,NNW,337,0.0,-999.0,90,0.00,,,0.00,open2300 v1.10,2013-08-19 12:10:00,
2013-08-19 07:16:00,64.8,61.8,30.08,NNW,337,0.0,-999.0,90,0.00,,,0.00,open2300 v1.10,2013-08-19 12:16:00,
2013-08-19 07:25:00,64.9,62.0,30.08,NNW,337,0.0,-999.0,90,0.00,,,0.00,open2300 v1.10,2013-08-19 12:25:00,
2013-08-19 07:31:00,65.1,62.2,30.09,NNW,337,0.0,-999.0,90,0.00,,,0.00,open2300 v1.10,2013-08-19 12:31:00,
2013-08-19 07:40:00,65.3,62.3,30.09,NNW,337,0.0,-999.0,90,0.00,,,0.00,open2300 v1.10,2013-08-19 12:40:00,
2013-08-19 07:46:00,65.5,62.5,30.09,NNW,337,0.0,-999.0,90,0.00,,,0.00,open2300 v1.10,2013-08-19 12:46:00,
2013-08-19 07:55:00,66.0,63.0,30.09,NNW,337,0.0,-999.0,90,0.00,,,0.00,open2300 v1.10,2013-08-19 12:55:00,
2013-08-19 08:02:00,66.7,63.7,30.09,NNW,337,0.0,-999.0,90,0.00,,,0.00,open2300 v1.10,2013-08-19 13:02:00,
2013-08-19 08:10:00,67.3,64.2,30.09,NNW,337,0.0,-999.0,90,0.00,,,0.00,open2300 v1.10,2013-08-19 13:10:00,
2013-08-19 08:16:00,67.8,64.8,30.09,NNW,337,0.0,-999.0,90,0.00,,,0.00,open2300 v1.10,2013-08-19 13:16:00,
2013-08-19 08:25:00,68.7,65.7,30.09,NNW,337,0.0,-999.0,90,0.00,,,0.00,open2300 v1.10,2013-08-19 13:25:00,
2013-08-19 08:31:00,69.1,66.0,30.09,NNW,337,0.0,-999.0,90,0.00,,,0.00,open2300 v1.10,2013-08-19 13:31:00,
2013-08-19 08:40:00,70.0,66.9,30.09,NNW,337,0.0,-999.0,90,0.00,,,0.00,open2300 v1.10,2013-08-19 13:40:00,
2013-08-19 08:46:00,70.3,67.3,30.09,NNW,337,0.0,-999.0,90,0.00,,,0.00,open2300 v1.10,2013-08-19 13:46:00,
2013-08-19 08:55:00,71.2,68.2,30.10,NNW,337,0.0,-999.0,90,0.00,,,0.00,open2300 v1.10,2013-08-19 13:55:00,
2013-08-19 09:02:00,71.8,68.4,30.09,NNW,337,0.0,-999.0,89,0.00,,,0.00,open2300 v1.10,2013-08-19 14:02:00,
2013-08-19 09:10:00,72.5,68.8,30.09,NNE,22,0.0,-999.0,88,0.00,,,0.00,open2300 v1.10,2013-08-19 14:10:00,
2013-08-19 09:16:00,73.0,69.3,30.09,NNE,22,0.0,-999.0,88,0.00,,,0.00,open2300 v1.10,2013-08-19 14:16:00,
2013-08-19 09:25:00,73.6,69.5,30.09,ESE,112,0.0,-999.0,87,0.00,,,0.00,open2300 v1.10,2013-08-19 14:25:00,
2013-08-19 09:31:00,73.6,69.5,30.09,ESE,112,0.0,-999.0,87,0.00,,,0.00,open2300 v1.10,2013-08-19 14:31:00,
2013-08-19 09:40:00,74.1,70.0,30.10,ESE,112,0.0,-999.0,87,0.00,,,0.00,open2300 v1.10,2013-08-19 14:40:00,
2013-08-19 09:46:00,74.5,70.1,30.10,ENE,67,0.0,-999.0,86,0.00,,,0.00,open2300 v1.10,2013-08-19 14:46:00,
2013-08-19 09:55:00,75.0,70.2,30.10,ESE,112,0.0,-999.0,85,0.00,,,0.00,open2300 v1.10,2013-08-19 14:55:00,
2013-08-19 10:02:00,75.4,70.2,30.10,SE,135,0.0,-999.0,84,0.00,,,0.00,open2300 v1.10,2013-08-19 15:02:00,
2013-08-19 10:10:00,75.7,70.2,30.10,NNW,337,0.0,-999.0,83,0.00,,,0.00,open2300 v1.10,2013-08-19 15:10:00,
2013-08-19 10:16:00,75.9,70.1,30.09,NNW,337,0.0,-999.0,82,0.00,,,0.00,open2300 v1.10,2013-08-19 15:16:00,
2013-08-19 10:25:00,77.0,70.7,30.10,ENE,67,0.0,-999.0,81,0.00,,,0.00,open2300 v1.10,2013-08-19 15:25:00,
2013-08-19 10:31:00,77.5,70.9,30.10,ENE,67,0.0,-999.0,80,0.00,,,0.00,open2300 v1.10,2013-08-19 15:31:00,
2013-08-19 10:40:00,79.0,70.7,30.10,ENE,67,0.0,-999.0,76,0.00,,,0.00,open2300 v1.10,2013-08-19 15:40:00,
2013-08-19 10:46:00,79.3,71.1,30.10,SE,135,0.0,-999.0,76,0.00,,,0.00,open2300 v1.10,2013-08-19 15:46:00,
2013-08-19 10:55:00,80.8,71.3,30.10,SSE,157,0.0,-999.0,73,0.00,,,0.00,open2300 v1.10,2013-08-19 15:55:00,
2013-08-19 11:02:00,82.0,72.1,30.11,SE,135,0.0,-999.0,72,0.00,,,0.00,open2300 v1.10,2013-08-19 16:02:00,
2013-08-19 11:10:00,83.5,72.2,30.10,East,90,0.0,-999.0,69,0.00,,,0.00,open2300 v1.10,2013-08-19 16:10:00,
2013-08-19 11:16:00,84.4,72.7,30.10,East,90,0.0,-999.0,68,0.00,,,0.00,open2300 v1.10,2013-08-19 16:16:00,
2013-08-19 11:25:00,83.3,71.2,30.10,ESE,112,0.0,-999.0,67,0.00,,,0.00,open2300 v1.10,2013-08-19 16:25:00,
2013-08-19 11:31:00,83.3,71.2,30.10,ESE,112,0.0,-999.0,67,0.00,,,0.00,open2300 v1.10,2013-08-19 16:31:00,
2013-08-19 11:40:00,83.1,71.4,30.09,NNE,22,0.0,-999.0,68,0.00,,,0.00,open2300 v1.10,2013-08-19 16:40:00,
2013-08-19 11:46:00,83.8,72.1,30.09,ESE,112,0.0,-999.0,68,0.00,,,0.00,open2300 v1.10,2013-08-19 16:46:00,
2013-08-19 11:55:00,84.4,71.8,30.09,ESE,112,0.0,-999.0,66,0.00,,,0.00,open2300 v1.10,2013-08-19 16:55:00,
2013-08-19 12:02:00,86.0,72.4,30.09,NE,45,0.0,-999.0,64,0.00,,,0.00,open2300 v1.10,2013-08-19 17:02:00,
2013-08-19 12:10:00,86.9,72.3,30.08,ESE,112,0.0,-999.0,62,0.00,,,0.00,open2300 v1.10,2013-08-19 17:10:00,
2013-08-19 12:16:00,86.7,71.7,30.08,ENE,67,0.0,-999.0,61,0.00,,,0.00,open2300 v1.10,2013-08-19 17:16:00,
2013-08-19 12:25:00,88.5,72.4,30.07,NE,45,0.0,-999.0,59,0.00,,,0.00,open2300 v1.10,2013-08-19 17:25:00,
2013-08-19 12:31:00,88.7,72.6,30.07,SSE,157,0.0,-999.0,59,0.00,,,0.00,open2300 v1.10,2013-08-19 17:31:00,
2013-08-19 12:40:00,88.7,72.6,30.07,SE,135,0.0,-999.0,59,0.00,,,0.00,open2300 v1.10,2013-08-19 17:40:00,
2013-08-19 12:46:00,89.2,72.5,30.07,SE,135,0.0,-999.0,58,0.00,,,0.00,open2300 v1.10,2013-08-19 17:46:00,
2013-08-19 12:55:00,88.0,70.9,30.06,ESE,112,0.0,-999.0,57,0.00,,,0.00,open2300 v1.10,2013-08-19 17:55:00,
2013-08-19 13:02:00,87.4,70.9,30.06,ESE,112,0.0,-999.0,58,0.00,,,0.00,open2300 v1.10,2013-08-19 18:02:00,
2013-08-19 13:10:00,88.5,71.3,30.06,ESE,112,0.0,-999.0,57,0.00,,,0.00,open2300 v1.10,2013-08-19 18:10:00,
2013-08-19 13:16:00,89.1,71.8,30.06,East,90,0.0,-999.0,57,0.00,,,0.00,open2300 v1.10,2013-08-19 18:16:00,
2013-08-19 13:25:00,90.0,71.6,30.06,SE,135,0.0,-999.0,55,0.00,,,0.00,open2300 v1.10,2013-08-19 18:25:00,
2013-08-19 13:31:00,90.0,71.0,30.06,ENE,67,0.0,-999.0,54,0.00,,,0.00,open2300 v1.10,2013-08-19 18:31:00,
2013-08-19 13:40:00,90.5,71.5,30.06,SSE,157,0.0,-999.0,54,0.00,,,0.00,open2300 v1.10,2013-08-19 18:40:00,
2013-08-19 13:46:00,90.0,71.0,30.05,East,90,0.0,-999.0,54,0.00,,,0.00,open2300 v1.10,2013-08-19 18:46:00,
2013-08-19 13:55:00,87.4,69.3,30.05,ESE,112,0.0,-999.0,55,0.00,,,0.00,open2300 v1.10,2013-08-19 18:55:00,
2013-08-19 14:02:00,87.1,68.9,30.05,SW,225,0.0,-999.0,55,0.00,,,0.00,open2300 v1.10,2013-08-19 19:02:00,
2013-08-19 14:10:00,87.3,69.6,30.04,South,180,0.0,-999.0,56,0.00,,,0.00,open2300 v1.10,2013-08-19 19:10:00,
2013-08-19 14:16:00,88.0,70.3,30.05,SSE,157,0.0,-999.0,56,0.00,,,0.00,open2300 v1.10,2013-08-19 19:16:00,
2013-08-19 14:25:00,88.5,70.8,30.04,ENE,67,0.0,-999.0,56,0.00,,,0.00,open2300 v1.10,2013-08-19 19:25:00,
2013-08-19 14:31:00,88.9,71.1,30.03,East,90,0.0,-999.0,56,0.00,,,0.00,open2300 v1.10,2013-08-19 19:31:00,
2013-08-19 14:46:00,86.9,69.3,30.03,ENE,67,0.0,-999.0,56,0.00,,,0.00,open2300 v1.10,2013-08-19 19:46:00,
2013-08-19 14:55:00,86.5,68.4,30.03,East,90,0.0,-999.0,55,0.00,,,0.00,open2300 v1.10,2013-08-19 19:55:00,
2013-08-19 15:02:00,86.5,68.9,30.03,East,90,0.0,-999.0,56,0.00,,,0.00,open2300 v1.10,2013-08-19 20:02:00,
2013-08-19 15:10:00,85.8,68.3,30.02,East,90,0.0,-999.0,56,0.00,,,0.00,open2300 v1.10,2013-08-19 20:10:00,
2013-08-19 15:16:00,85.1,68.7,30.02,SE,135,0.0,-999.0,58,0.00,,,0.00,open2300 v1.10,2013-08-19 20:16:00,
2013-08-19 15:25:00,85.1,68.7,30.02,SE,135,0.0,-999.0,58,0.00,,,0.00,open2300 v1.10,2013-08-19 20:25:00,
2013-08-19 15:31:00,85.1,68.7,30.02,SE,135,0.0,-999.0,58,0.00,,,0.00,open2300 v1.10,2013-08-19 20:31:00,
2013-08-19 15:40:00,85.3,68.8,30.02,SSE,157,0.0,-999.0,58,0.00,,,0.00,open2300 v1.10,2013-08-19 20:40:00,
2013-08-19 15:46:00,85.6,68.6,30.01,SE,135,0.0,-999.0,57,0.00,,,0.00,open2300 v1.10,2013-08-19 20:46:00,
2013-08-19 15:55:00,84.9,69.0,30.01,SE,135,0.0,-999.0,59,0.00,,,0.00,open2300 v1.10,2013-08-19 20:55:00,
2013-08-19 16:02:00,84.7,68.9,30.01,SE,135,0.0,-999.0,59,0.00,,,0.00,open2300 v1.10,2013-08-19 21:02:00,
2013-08-19 16:10:00,84.9,68.5,30.01,SE,135,0.0,-999.0,58,0.00,,,0.00,open2300 v1.10,2013-08-19 21:10:00,
2013-08-19 16:16:00,85.3,68.3,30.01,SE,135,0.0,-999.0,57,0.00,,,0.00,open2300 v1.10,2013-08-19 21:16:00,
2013-08-19 16:25:00,84.7,68.3,30.00,SE,135,0.0,-999.0,58,0.00,,,0.00,open2300 v1.10,2013-08-19 21:25:00,
2013-08-19 16:31:00,84.9,68.5,30.01,SE,135,0.0,-999.0,58,0.00,,,0.00,open2300 v1.10,2013-08-19 21:31:00,
2013-08-19 16:40:00,85.1,68.7,30.01,SE,135,0.0,-999.0,58,0.00,,,0.00,open2300 v1.10,2013-08-19 21:40:00,
2013-08-19 16:46:00,85.1,68.1,30.00,ESE,112,0.0,-999.0,57,0.00,,,0.00,open2300 v1.10,2013-08-19 21:46:00,
2013-08-19 16:55:00,85.3,68.3,30.00,ESE,112,0.0,-999.0,57,0.00,,,0.00,open2300 v1.10,2013-08-19 21:55:00,
2013-08-19 17:02:00,85.1,68.1,30.00,ESE,112,0.0,-999.0,57,0.00,,,0.00,open2300 v1.10,2013-08-19 22:02:00,
2013-08-19 17:10:00,84.9,68.0,30.00,ESE,112,0.0,-999.0,57,0.00,,,0.00,open2300 v1.10,2013-08-19 22:10:00,
2013-08-19 17:16:00,84.9,68.5,30.00,ESE,112,0.0,-999.0,58,0.00,,,0.00,open2300 v1.10,2013-08-19 22:16:00,
2013-08-19 17:25:00,84.9,68.5,30.00,ENE,67,0.0,-999.0,58,0.00,,,0.00,open2300 v1.10,2013-08-19 22:25:00,
2013-08-19 17:31:00,84.0,68.2,30.00,ENE,67,0.0,-999.0,59,0.00,,,0.00,open2300 v1.10,2013-08-19 22:31:00,
2013-08-19 17:40:00,83.1,67.8,30.00,ENE,67,0.0,-999.0,60,0.00,,,0.00,open2300 v1.10,2013-08-19 22:40:00,
2013-08-19 17:46:00,82.9,68.1,30.00,ENE,67,0.0,-999.0,61,0.00,,,0.00,open2300 v1.10,2013-08-19 22:46:00,
2013-08-19 17:55:00,82.6,67.7,30.00,ENE,67,0.0,-999.0,61,0.00,,,0.00,open2300 v1.10,2013-08-19 22:55:00,
2013-08-19 18:02:00,82.8,68.4,30.00,ENE,67,0.0,-999.0,62,0.00,,,0.00,open2300 v1.10,2013-08-19 23:02:00,
2013-08-19 18:10:00,82.8,68.4,30.00,NNE,22,0.0,-999.0,62,0.00,,,0.00,open2300 v1.10,2013-08-19 23:10:00,
2013-08-19 18:16:00,82.6,68.6,30.00,NNE,22,0.0,-999.0,63,0.00,,,0.00,open2300 v1.10,2013-08-19 23:16:00,
2013-08-19 18:25:00,82.2,68.3,30.00,NNE,22,0.0,-999.0,63,0.00,,,0.00,open2300 v1.10,2013-08-19 23:25:00,
2013-08-19 18:31:00,81.7,68.2,30.00,NNE,22,0.0,-999.0,64,0.00,,,0.00,open2300 v1.10,2013-08-19 23:31:00,
2013-08-19 18:40:00,81.1,68.2,30.00,NNE,22,0.0,-999.0,65,0.00,,,0.00,open2300 v1.10,2013-08-19 23:40:00,
2013-08-19 18:46:00,80.8,67.9,30.00,NNE,22,0.0,-999.0,65,0.00,,,0.00,open2300 v1.10,2013-08-19 23:46:00,
2013-08-19 18:55:00,80.4,68.0,30.00,NNE,22,0.0,-999.0,66,0.00,,,0.00,open2300 v1.10,2013-08-19 23:55:00,
2013-08-19 19:02:00,80.1,67.7,30.01,NNE,22,0.0,-999.0,66,0.00,,,0.00,open2300 v1.10,2013-08-20 00:02:00,
2013-08-19 19:10:00,79.5,67.6,30.01,NNE,22,0.0,-999.0,67,0.00,,,0.00,open2300 v1.10,2013-08-20 00:10:00,
2013-08-19 19:16:00,79.5,67.6,30.01,NNE,22,0.0,-999.0,67,0.00,,,0.00,open2300 v1.10,2013-08-20 00:16:00,
2013-08-19 19:25:00,79.0,67.5,30.00,NNE,22,0.0,-999.0,68,0.00,,,0.00,open2300 v1.10,2013-08-20 00:25:00,
2013-08-19 19:31:00,78.6,67.6,30.01,NNE,22,0.0,-999.0,69,0.00,,,0.00,open2300 v1.10,2013-08-20 00:31:00,
2013-08-19 19:40:00,78.4,67.9,30.01,NNE,22,0.0,-999.0,70,0.00,,,0.00,open2300 v1.10,2013-08-20 00:40:00,
2013-08-19 19:46:00,78.1,67.5,30.01,NNE,22,0.0,-999.0,70,0.00,,,0.00,open2300 v1.10,2013-08-20 00:46:00,
2013-08-19 19:55:00,77.5,67.1,30.01,NNE,22,0.0,-999.0,70,0.00,,,0.00,open2300 v1.10,2013-08-20 00:55:00,
2013-08-19 20:02:00,77.4,67.3,30.01,NNE,22,0.0,-999.0,71,0.00,,,0.00,open2300 v1.10,2013-08-20 01:02:00,
2013-08-19 20:10:00,76.8,66.8,30.02,NNE,22,0.0,-999.0,71,0.00,,,0.00,open2300 v1.10,2013-08-20 01:10:00,
2013-08-19 20:16:00,76.5,66.8,30.02,NNE,22,0.0,-999.0,72,0.00,,,0.00,open2300 v1.10,2013-08-20 01:16:00,
2013-08-19 20:25:00,76.1,66.8,30.02,NNE,22,0.0,-999.0,73,0.00,,,0.00,open2300 v1.10,2013-08-20 01:25:00,
2013-08-19 20:31:00,75.9,67.0,30.02,NNE,22,0.0,-999.0,74,0.00,,,0.00,open2300 v1.10,2013-08-20 01:31:00,
2013-08-19 20:46:00,75.2,66.7,30.02,NNE,22,0.0,-999.0,75,0.00,,,0.00,open2300 v1.10,2013-08-20 01:46:00,
2013-08-19 20:55:00,74.8,66.8,30.03,NNE,22,0.0,-999.0,76,0.00,,,0.00,open2300 v1.10,2013-08-20 01:55:00,
2013-08-19 21:02:00,74.5,66.8,30.03,NNE,22,0.0,-999.0,77,0.00,,,0.00,open2300 v1.10,2013-08-20 02:02:00,
2013-08-19 21:10:00,74.3,67.1,30.03,NNE,22,0.0,-999.0,78,0.00,,,0.00,open2300 v1.10,2013-08-20 02:10:00,
2013-08-19 21:16:00,73.9,66.7,30.03,NNE,22,0.0,-999.0,78,0.00,,,0.00,open2300 v1.10,2013-08-20 02:16:00,
2013-08-19 21:25:00,73.8,66.9,30.03,NNE,22,0.0,-999.0,79,0.00,,,0.00,open2300 v1.10,2013-08-20 02:25:00,
2013-08-19 21:31:00,73.6,66.7,30.03,NNE,22,0.0,-999.0,79,0.00,,,0.00,open2300 v1.10,2013-08-20 02:31:00,
2013-08-19 21:40:00,73.2,66.7,30.03,NNE,22,0.0,-999.0,80,0.00,,,0.00,open2300 v1.10,2013-08-20 02:40:00,
2013-08-19 21:46:00,73.2,66.7,30.04,NNE,22,0.0,-999.0,80,0.00,,,0.00,open2300 v1.10,2013-08-20 02:46:00,
2013-08-19 21:55:00,72.9,66.4,30.03,NNE,22,0.0,-999.0,80,0.00,,,0.00,open2300 v1.10,2013-08-20 02:55:00,
2013-08-19 22:02:00,72.7,66.2,30.04,NNE,22,0.0,-999.0,80,0.00,,,0.00,open2300 v1.10,2013-08-20 03:02:00,
2013-08-19 22:10:00,72.5,66.4,30.04,NNE,22,0.0,-999.0,81,0.00,,,0.00,open2300 v1.10,2013-08-20 03:10:00,
2013-08-19 22:16:00,72.3,66.2,30.04,NNE,22,0.0,-999.0,81,0.00,,,0.00,open2300 v1.10,2013-08-20 03:16:00,
2013-08-19 22:25:00,72.1,66.3,30.04,NNE,22,0.0,-999.0,82,0.00,,,0.00,open2300 v1.10,2013-08-20 03:25:00,
2013-08-19 22:31:00,72.1,66.3,30.04,NNE,22,0.0,-999.0,82,0.00,,,0.00,open2300 v1.10,2013-08-20 03:31:00,
2013-08-19 22:40:00,72.0,66.2,30.04,NNE,22,0.0,-999.0,82,0.00,,,0.00,open2300 v1.10,2013-08-20 03:40:00,
2013-08-19 22:46:00,71.8,66.0,30.04,NNE,22,0.0,-999.0,82,0.00,,,0.00,open2300 v1.10,2013-08-20 03:46:00,
2013-08-19 22:55:00,71.8,66.0,30.04,NNE,22,0.0,-999.0,82,0.00,,,0.00,open2300 v1.10,2013-08-20 03:55:00,
2013-08-19 23:02:00,71.6,66.2,30.04,NNE,22,0.0,-999.0,83,0.00,,,0.00,open2300 v1.10,2013-08-20 04:02:00,
2013-08-19 23:10:00,71.4,66.0,30.04,NNE,22,0.0,-999.0,83,0.00,,,0.00,open2300 v1.10,2013-08-20 04:10:00,
2013-08-19 23:16:00,71.2,65.8,30.04,NNE,22,0.0,-999.0,83,0.00,,,0.00,open2300 v1.10,2013-08-20 04:16:00,
2013-08-19 23:25:00,71.2,65.8,30.04,NNE,22,0.0,-999.0,83,0.00,,,0.00,open2300 v1.10,2013-08-20 04:25:00,
2013-08-19 23:31:00,71.2,65.8,30.04,NNE,22,0.0,-999.0,83,0.00,,,0.00,open2300 v1.10,2013-08-20 04:31:00,
2013-08-19 23:40:00,70.9,65.4,30.04,NNE,22,0.0,-999.0,83,0.00,,,0.00,open2300 v1.10,2013-08-20 04:40:00,
2013-08-19 23:46:00,70.9,65.4,30.04,NNE,22,0.0,-999.0,83,0.00,,,0.00,open2300 v1.10,2013-08-20 04:46:00,
2013-08-19 23:55:00,71.1,65.6,30.04,NNE,22,0.0,-999.0,83,0.00,,,0.00,open2300 v1.10,2013-08-20 04:55:00,